Weather History for KLBT - February, 2013

Change the Weather History Date:

Thursday, February 21, 2013

  Actual Average Record
Temperature  
Mean Temperature 43 °F 48 °F  
Max Temperature 58 °F 60 °F - ()
Min Temperature 27 °F 37 °F - ()
Degree Days  
Heating Degree Days 22 17  
Month to date heating degree days 423 399  
Since 1 July heating degree days 1947 2118  
Cooling Degree Days 0 0  
Month to date cooling degree days 0 0  
Year to date cooling degree days 4 1  
Moisture  
Dew Point 25 °F    
Average Humidity 55    
Maximum Humidity 82    
Minimum Humidity 28    
Precipitation  
Precipitation 0.00 in 0.12 in - ()
Month to date precipitation 2.05 2.12  
Year to date precipitation 3.53 5.09  
Snow  
Snow 0.00 in - - ()
Month to date snowfall 0.0  
Since 1 July snowfall 0.0  
Snow Depth 0.00 in    
Sea Level Pressure  
Sea Level Pressure 30.17 in    
Wind  
Wind Speed 3 mph (NNE)    
Max Wind Speed 12 mph    
Max Gust Speed 24 mph    
Visibility 10 miles    
Events      
T = Trace of Precipitation, MM = Missing Value Source: NWS Daily Summary

Daily Weather History Graph

Daily Weather History Graph

Search for Another Location

Airport or City:

Trip Planner

Search our weather history database for the weather conditions in past years. The results will help you decide how hot, cold, wet, or windy it might be!

Date:

Astronomy

Feb. 21, 2013 Rise Set
Actual Time 6:54 AM EST 6:05 PM EST
Civil Twilight 6:29 AM EST 6:30 PM EST
Nautical Twilight 5:59 AM EST 7:00 PM EST
Astronomical Twilight 5:30 AM EST 7:29 PM EST
Moon 2:24 PM EST (2/21) 3:51 AM EST (2/21)
Length of Visible Light 12h 01m
Length of Day
11h 10m
Waxing Gibbous, 83% of the Moon is Illuminated
Feb 21
Waxing Gibbous
Feb 25
Full
Mar 4
Last Quarter
Mar 11
New
Mar 19
First Quarter

Hourly Weather History & Observations

Time (EST) Temp. Windchill Dew Point Humidity Pressure Visibility Wind Dir Wind Speed Gust Speed Precip Events Conditions
12:54 AM 33.1 °F 30.0 °F 28.9 °F 85% 30.12 in 10.0 mi NE 3.5 mph - N/A   Clear
1:54 AM 34.0 °F - 25.0 °F 70% 30.14 in 10.0 mi Calm Calm - N/A   Clear
2:54 AM 30.9 °F 26.2 °F 25.0 °F 79% 30.14 in 10.0 mi NE 4.6 mph - N/A   Clear
3:54 AM 30.0 °F - 24.1 °F 79% 30.15 in 10.0 mi Calm Calm - N/A   Clear
4:54 AM 30.9 °F - 24.1 °F 76% 30.16 in 10.0 mi Calm Calm - N/A   Clear
5:54 AM 30.0 °F - 23.0 °F 75% 30.17 in 10.0 mi Calm Calm - N/A   Clear
6:54 AM 28.0 °F 24.2 °F 21.9 °F 78% 30.19 in 10.0 mi NNW 3.5 mph - N/A   Clear
7:54 AM 34.0 °F 28.8 °F 23.0 °F 64% 30.20 in 10.0 mi NE 5.8 mph - N/A   Clear
8:54 AM 39.0 °F 32.3 °F 19.9 °F 46% 30.23 in 10.0 mi NE 10.4 mph 16.1 mph N/A   Clear
9:54 AM 43.0 °F 38.8 °F 21.0 °F 42% 30.23 in 10.0 mi NNE 6.9 mph - N/A   Clear
10:54 AM 46.9 °F - 21.9 °F 37% 30.22 in 10.0 mi Calm Calm - N/A   Clear
11:54 AM 50.0 °F - 24.1 °F 36% 30.20 in 10.0 mi Calm Calm - N/A   Clear
12:54 PM 52.0 °F - 19.9 °F 28% 30.17 in 10.0 mi Calm Calm - N/A   Clear
1:54 PM 54.0 °F - 23.0 °F 30% 30.14 in 10.0 mi WNW 9.2 mph - N/A   Clear
2:54 PM 55.9 °F - 24.1 °F 29% 30.12 in 10.0 mi North 4.6 mph - N/A   Clear
3:54 PM 57.0 °F - 24.1 °F 28% 30.11 in 10.0 mi Calm Calm - N/A   Clear
4:54 PM 55.0 °F - 24.1 °F 30% 30.13 in 10.0 mi North 6.9 mph - N/A   Clear
5:54 PM 52.0 °F - 24.1 °F 34% 30.14 in 10.0 mi Calm Calm - N/A   Clear
6:54 PM 45.0 °F - 34.0 °F 65% 30.15 in 10.0 mi Calm Calm - N/A   Clear
7:54 PM 45.0 °F - 36.0 °F 71% 30.17 in 10.0 mi Calm Calm - N/A   Clear
8:54 PM 43.0 °F - 35.1 °F 74% 30.17 in 10.0 mi Calm Calm - N/A   Clear
9:54 PM 41.0 °F - 33.1 °F 73% 30.20 in 10.0 mi Calm Calm - N/A   Clear
10:54 PM 46.0 °F 42.5 °F 25.0 °F 44% 30.22 in 10.0 mi ENE 6.9 mph - N/A   Clear
11:54 PM 46.9 °F - 25.0 °F 42% 30.21 in 10.0 mi ENE 10.4 mph - N/A   Mostly Cloudy